Terminal Aerodrome Forecast
Issued by NWS

Home | Current Version | Previous Version | Text Only | Print | Product List | Glossary On
Versions: 1 2 3 4 5 6 7 8 9 10 11 12 13 14
000
FTUS45 KPIH 210800 AAA
TAFSUN
TAF AMD
KSUN 210810Z 2108/2206 12007KT P6SM -SHRA VCTS SCT025 OVC050CB
     FM211500 24008KT P6SM -SHRA BKN015 OVC040
     FM211900 26010G20KT P6SM VCSH SCT025 BKN050
     FM212300 28011KT P6SM SCT080 BKN200
      AMD LTD TO CLD VIS AND WIND TIL 211300=

USA.gov is the U.S. government's official web portal to all federal, state and local government web resources and services.